Weather observations for the past three days for
Sandpoint, Sandpoint Airport
Imperial (Metric)
Date Time (pdt) Wind (mph) Vis. (mi.) Weather Sky Cond. Temperature (ºF) Relative Humidity Wind Chill (°F) Heat Index (°F) Pressure Precipitation (in)
Air Dwpt 6 hour altimeter (in) sea level (mb) 1 hr 3 hr 6 hr
Max. Min.
18 13:35 E 6 10.00 Fair CLR 87.8 51.8 29% 85 30.04 0.0
18 13:15 SE 6 10.00 Fair CLR 87.8 53.6 31% 86 30.04 0.0
18 12:50 SE 6 10.00 Fair CLR 87.8 53.6 31% 86 30.04 0.0
18 11:50 SE 5 10.00 Fair CLR 86 48.2 27% 83 30.04 0.0
18 11:20 Calm 10.00 Fair CLR 82.4 53.6 37% 81 30.05 0.0
18 10:55 Calm 10.00 Fair CLR 82.4 59 45% 82 30.05 0.0
18 10:40 Calm 10.00 Fair CLR 82.4 57.2 42% 82 30.05 0.0
18 10:15 Calm 10.00 Fair CLR 80.6 59 48% 81 30.05 0.0
18 09:50 Calm 10.00 Fair CLR 80.6 57.2 45% 81 30.04 0.0
18 09:35 Calm 10.00 Fair CLR 78.8 55.4 45% 79 30.04 0.0
18 09:15 Calm 10.00 Fair CLR 77 55.4 47% 79 30.04 0.0
18 08:55 Calm 10.00 Fair CLR 75.2 53.6 47% 78 30.04 0.0
18 08:15 Calm 10.00 Fair CLR 73.4 55.4 53% 30.04 0.0
18 07:55 Calm 10.00 Fair CLR 71.6 55.4 57% 30.04 0.0
18 07:20 Calm 10.00 Fair CLR 68 55.4 64% 30.04 0.0
18 06:55 Calm 10.00 Fair CLR 64.4 55.4 73% 30.04 0.0
18 06:20 Calm 10.00 Fair CLR 62.6 53.6 73% 30.04 0.0
18 05:50 Calm 10.00 Fair CLR 60.8 53.6 77% 30.04 0.0
18 05:35 Calm 10.00 Fair CLR 60.8 55.4 83% 30.03 0.0
18 05:15 NW 3 10.00 Fair CLR 60.8 55.4 83% 30.03 0.0
18 04:35 Calm 10.00 Fair CLR 62.6 55.4 77% 30.02 0.0
18 03:55 Calm 10.00 Fair CLR 64.4 57.2 78% 30 0.0
18 03:30 Calm 10.00 Fair CLR 68 55.4 64% 30 0.0
18 03:15 NE 3 10.00 Fair CLR 66.2 59 78% 29.99 0.0
18 02:55 Calm 10.00 Fair CLR 68 57.2 69% 29.99 0.0
18 02:40 W 3 10.00 Fair CLR 68 57.2 69% 30 0.0
18 02:00 S 5 10.00 Fair CLR 71.6 55.4 57% 29.98 0.0
18 01:40 Calm 10.00 Fair CLR 71.6 55.4 57% 29.98 0.0
18 01:20 SW 9 10.00 Fair CLR 69.8 55.4 60% 30 0.0
18 00:55 Calm 10.00 Partly Cloudy SCT120 69.8 55.4 60% 29.98 0.0
17 23:50 Calm 10.00 Fair CLR 68 57.2 69% 29.97 0.0
17 23:20 W 3 10.00 Fair CLR 68 57.2 69% 29.97 0.0
17 23:00 Calm 10.00 Fair CLR 68 57.2 69% 29.97 0.0
17 22:30 Calm 10.00 Fair CLR 69.8 59 69% 29.97 0.0
17 22:15 Calm 10.00 Fair CLR 71.6 59 65% 29.97 0.0
17 21:55 Calm 10.00 Fair CLR 73.4 57.2 57% 29.97 0.0
17 21:15 Calm 10.00 Fair CLR 73.4 59 61% 29.97 0.0
17 20:50 Calm 10.00 Fair CLR 73.4 60.8 65% 29.97 0.0
17 20:15 S 5 10.00 Fair CLR 75.2 60.8 61% 77 29.97 0.0
17 18:30 SE 3 10.00 Fair CLR 84.2 53.6 35% 83 29.96 0.0
17 17:35 Calm 10.00 Fair CLR 86 53.6 33% 84 29.97 0.0
17 17:15 SW 5 10.00 Fair CLR 87.8 51.8 29% 85 29.98 0.0
17 16:55 Calm 10.00 Fair CLR 87.8 51.8 29% 85 29.97 0.0
17 16:35 SW 3 10.00 Fair CLR 87.8 51.8 29% 85 29.98 0.0
17 16:15 SW 3 10.00 Fair CLR 87.8 51.8 29% 85 29.98 0.0
17 15:55 W 5 10.00 Fair CLR 89.6 50 26% 87 29.98 0.0
17 15:35 Calm 10.00 Fair CLR 91.4 51.8 26% 89 29.98 0.0
17 15:20 Calm 10.00 Fair CLR 89.6 51.8 27% 87 29.98 0.0
17 14:55 E 3 10.00 Fair CLR 89.6 51.8 27% 87 29.99 0.0
17 14:35 E 3 10.00 Fair CLR 87.8 53.6 31% 86 29.99 0.0
17 14:15 E 6 10.00 Fair CLR 89.6 53.6 29% 87 29.99 0.0
17 14:00 E 5 10.00 Fair CLR 89.6 53.6 29% 87 30 0.0
17 13:35 E 7 10.00 Fair CLR 89.6 55.4 31% 88 30 0.0
17 13:15 E 3 10.00 Fair CLR 87.8 53.6 31% 86 30.01 0.0
17 12:55 Calm 10.00 Fair CLR 87.8 53.6 31% 86 30.02 0.0
17 12:35 S 3 10.00 Fair CLR 86 53.6 33% 84 30.02 0.0
17 12:10 Calm 10.00 Fair CLR 82.4 53.6 37% 81 30.02 0.0
17 11:55 E 3 10.00 Fair CLR 84.2 53.6 35% 83 30.02 0.0
17 11:35 SE 3 10.00 Fair CLR 82.4 53.6 37% 81 30.04 0.0
17 11:15 SE 3 10.00 Fair CLR 80.6 53.6 39% 80 30.04 0.0
17 10:55 E 3 10.00 Fair CLR 80.6 53.6 39% 80 30.04 0.0
17 10:35 SE 3 10.00 Fair CLR 80.6 53.6 39% 80 30.04 0.0
17 10:15 SE 6 10.00 Fair CLR 78.8 53.6 42% 79 30.04 0.0
17 09:55 E 5 10.00 Fair CLR 78.8 53.6 42% 79 30.04 0.0
17 09:35 E 9 10.00 Fair CLR 78.8 51.8 39% 79 30.04 0.0
17 09:15 NE 8 10.00 Fair CLR 77 53.6 44% 78 30.04 0.0
17 08:55 NE 7 10.00 Fair CLR 77 53.6 44% 78 30.04 0.0
17 08:35 NE 6 10.00 Fair CLR 73.4 53.6 50% 30.05 0.0
17 08:15 Calm 10.00 Fair CLR 69.8 53.6 57% 30.06 0.0
17 07:55 Calm 10.00 Fair CLR 69.8 51.8 53% 30.06 0.0
17 07:35 Calm 10.00 Fair CLR 68 51.8 56% 30.05 0.0
17 06:55 Calm 10.00 Fair CLR 62.6 53.6 73% 30.04 0.0
17 06:35 Calm 10.00 Fair CLR 60.8 51.8 72% 30.04 0.0
17 06:15 Calm 10.00 Fair CLR 59 51.8 77% 30.04 0.0
17 05:55 Calm 10.00 Fair CLR 55.4 50 82% 30.04 0.0
17 05:35 Calm 10.00 Fair CLR 53.6 50 88% 30.03 0.0
17 05:15 Calm 10.00 Fair CLR 53.6 50 88% 30.03 0.0
17 04:55 Calm 10.00 Fair CLR 55.4 50 82% 30.02 0.0
17 04:35 Calm 10.00 Fair CLR 55.4 50 82% 30.02 0.0
17 04:15 Calm 10.00 Fair CLR 55.4 50 82% 30.01 0.0
17 03:55 Calm 10.00 Fair CLR 55.4 50 82% 30.01 0.0
17 03:35 Calm 10.00 Fair CLR 55.4 50 82% 30.01 0.0
17 03:15 Calm 10.00 Fair CLR 57.2 51.8 82% 30 0.0
17 02:55 Calm 10.00 Fair CLR 55.4 50 82% 30 0.0
17 02:40 Calm 10.00 Fair CLR 55.4 50 82% 30 0.0
17 02:15 Calm 10.00 Fair CLR 59 51.8 77% 30 0.0
17 01:55 Calm 10.00 Fair CLR 59 51.8 77% 30 0.0
17 01:35 Calm 10.00 Fair CLR 59 51.8 77% 30 0.0
17 01:20 Calm 10.00 Fair CLR 59 51.8 77% 30 0.0
17 00:55 Calm 10.00 Fair CLR 59 51.8 77% 30 0.0
17 00:15 NW 3 10.00 Fair CLR 60.8 51.8 72% 29.99 0.0
16 23:55 Calm 10.00 Fair CLR 60.8 51.8 72% 29.99 0.0
16 23:35 Calm 10.00 Fair CLR 60.8 51.8 72% 29.99 0.0
16 23:15 Calm 10.00 Fair CLR 62.6 51.8 68% 29.99 0.0
16 22:50 Calm 10.00 Fair CLR 62.6 53.6 73% 29.99 0.0
16 22:35 Calm 10.00 Fair CLR 64.4 53.6 68% 29.99 0.0
16 22:15 Calm 10.00 Fair CLR 64.4 53.6 68% 29.99 0.0
16 21:55 Calm 10.00 Fair CLR 66.2 53.6 64% 29.99 0.0
16 21:35 Calm 10.00 Fair CLR 68 53.6 60% 29.98 0.0
16 21:15 Calm 10.00 Fair CLR 68 53.6 60% 29.98 0.0
16 20:55 Calm 10.00 Fair CLR 69.8 55.4 60% 29.98 0.0
16 20:35 Calm 7.00 Fair CLR 71.6 55.4 57% 29.97 0.0
16 20:15 Calm 10.00 Fair CLR 73.4 55.4 53% 29.97 0.0
16 19:55 Calm 10.00 Fair CLR 75.2 55.4 50% 78 29.97 0.0
16 19:35 Calm 10.00 Fair CLR 78.8 55.4 45% 79 29.97 0.0
16 19:15 Calm 10.00 Fair CLR 82.4 59 45% 82 29.97 0.0
16 18:55 E 3 10.00 Fair CLR 87.8 53.6 31% 86 29.97 0.0
16 18:35 Calm 10.00 Fair CLR 86 53.6 33% 84 29.97 0.0
16 18:15 Calm 10.00 Fair CLR 89.6 50 26% 87 29.97 0.0
16 17:55 Calm 10.00 Fair CLR 89.6 46.4 22% 86 29.97 0.0
16 17:35 W 3 10.00 Fair CLR 89.6 44.6 21% 86 29.98 0.0
16 17:15 SW 3 10.00 Fair CLR 89.6 44.6 21% 86 29.98 0.0
16 16:55 SW 5 10.00 Fair CLR 89.6 44.6 21% 86 29.99 0.0
16 16:35 W 5 10.00 Fair CLR 89.6 44.6 21% 86 29.99 0.0
16 16:15 SW 5 10.00 Fair CLR 89.6 44.6 21% 86 29.99 0.0
16 15:55 W 6 10.00 Fair CLR 89.6 46.4 22% 86 30 0.0
16 15:35 SW 5 10.00 Fair CLR 89.6 46.4 22% 86 30.01 0.0
16 15:15 Calm 10.00 Fair CLR 86 51.8 31% 84 30.01 0.0
16 14:55 E 7 10.00 Fair CLR 84.2 51.8 33% 82 30.02 0.0
16 14:35 E 6 10.00 Fair CLR 86 50 29% 84 30.02 0.0
16 14:15 Calm 10.00 Fair CLR 87.8 44.6 22% 85 30.02 0.0
16 13:55 E 7 10.00 Fair CLR 86 50 29% 84 30.03 0.0
16 13:35 SE 6 10.00 Fair CLR 86 50 29% 84 30.03 0.0
16 13:15 E 7 10.00 Fair CLR 86 50 29% 84 30.04 0.0
16 12:55 E 7 10.00 Fair CLR 84.2 50 31% 82 30.04 0.0
16 12:35 SE 7 10.00 Fair CLR 84.2 50 31% 82 30.04 0.0
16 12:15 SE 9 10.00 Fair CLR 82.4 48.2 30% 81 30.05 0.0
16 11:55 SE 7 10.00 Fair CLR 82.4 46.4 28% 81 30.05 0.0
16 11:35 SE 5 10.00 Fair CLR 80.6 46.4 30% 80 30.05 0.0
16 11:20 S 3 10.00 Fair CLR 80.6 46.4 30% 80 30.06 0.0
16 11:00 Calm 10.00 Fair CLR 78.8 44.6 30% 79 30.06 0.0
16 10:35 SE 3 10.00 Fair CLR 78.8 42.8 28% 78 30.06 0.0
16 10:15 Calm 10.00 Fair CLR 77 44.6 32% 78 30.06 0.0
16 09:35 E 3 10.00 Fair CLR 75.2 46.4 36% 77 30.07 0.0
16 09:15 E 3 10.00 Fair CLR 73.4 46.4 38% 30.07 0.0
16 08:55 SE 3 10.00 Fair CLR 73.4 48.2 41% 30.07 0.0
16 08:30 E 3 10.00 Fair CLR 71.6 46.4 41% 30.07 0.0
16 08:15 NE 5 10.00 Fair CLR 69.8 48.2 46% 30.06 0.0
16 07:55 Calm 10.00 Fair CLR 68 50 53% 30.06 0.0
16 07:35 Calm 10.00 Fair CLR 64.4 50 60% 30.06 0.0
16 07:15 Calm 10.00 Fair CLR 62.6 48.2 60% 30.06 0.0
16 06:55 Calm 10.00 Fair CLR 59 48.2 68% 30.06 0.0
16 06:35 Calm 10.00 Fair CLR 57.2 48.2 72% 30.05 0.0
16 06:15 Calm 10.00 Fair CLR 55.4 46.4 72% 30.05 0.0
16 05:55 Calm 10.00 Fair CLR 53.6 46.4 77% 30.04 0.0
16 05:35 Calm 10.00 Fair CLR 51.8 44.6 77% 30.04 0.0
16 05:15 Calm 10.00 Fair CLR 51.8 44.6 77% 30.04 0.0
16 04:55 Calm 10.00 Fair CLR 51.8 44.6 77% 30.03 0.0
16 04:35 Calm 10.00 Fair CLR 51.8 44.6 77% 30.02 0.0
16 04:15 Calm 10.00 Fair CLR 51.8 44.6 77% 30.02 0.0
16 03:55 Calm 10.00 Fair CLR 51.8 44.6 77% 30.01 0.0
16 03:35 Calm 10.00 Fair CLR 53.6 44.6 72% 30 0.0
16 03:15 Calm 10.00 Fair CLR 53.6 46.4 77% 30 0.0
16 02:55 Calm 10.00 Fair CLR 53.6 46.4 77% 30 0.0
16 02:35 Calm 10.00 Fair CLR 53.6 46.4 77% 29.99 0.0
16 02:15 Calm 10.00 Fair CLR 53.6 44.6 72% 29.99 0.0
16 01:55 Calm 10.00 Fair CLR 55.4 46.4 72% 29.99 0.0
16 01:35 Calm 10.00 Fair CLR 55.4 46.4 72% 29.99 0.0
16 01:15 Calm 10.00 Fair CLR 55.4 46.4 72% 29.99 0.0
16 00:55 Calm 10.00 Fair CLR 55.4 46.4 72% 29.98 0.0
16 00:35 Calm 10.00 Fair CLR 57.2 46.4 67% 29.98 0.0
16 00:15 Calm 10.00 Fair CLR 57.2 46.4 67% 29.98 0.0
15 23:55 Calm 10.00 Fair CLR 59 46.4 63% 29.98 0.0
15 23:35 Calm 10.00 Fair CLR 59 46.4 63% 29.98 0.0
15 23:15 Calm 10.00 Fair CLR 59 46.4 63% 29.97 0.0
15 22:55 Calm 10.00 Fair CLR 60.8 46.4 59% 29.97 0.0
15 22:35 Calm 10.00 Fair CLR 60.8 46.4 59% 29.97 0.0
15 22:15 Calm 10.00 Fair CLR 60.8 46.4 59% 29.97 0.0
15 21:55 Calm 10.00 Fair CLR 62.6 48.2 60% 29.97 0.0
15 21:35 Calm 10.00 Fair CLR 64.4 50 60% 29.97 0.0
15 21:15 Calm 10.00 Fair CLR 64.4 50 60% 29.96 0.0
15 20:55 Calm 10.00 Fair CLR 68 50 53% 29.96 0.0
15 20:35 Calm 10.00 Fair CLR 69.8 50 50% 29.95 0.0
15 20:15 Calm 10.00 Fair CLR 71.6 50 47% 29.95 0.0
15 19:55 Calm 10.00 Fair CLR 73.4 51.8 47% 29.95 0.0
15 19:35 Calm 10.00 Fair CLR 78.8 51.8 39% 79 29.95 0.0
15 19:15 Calm 10.00 Fair CLR 80.6 50 34% 80 29.95 0.0
15 18:55 W 3 10.00 Fair CLR 86 41 20% 83 29.95 0.0
15 18:35 SW 5 10.00 Fair CLR 86 41 20% 83 29.95 0.0
15 18:15 SW 6 10.00 Fair CLR 87.8 41 19% 84 29.95 0.0
15 17:55 SW 5 10.00 Fair CLR 87.8 42.8 21% 84 29.95 0.0
15 17:35 SW 6 10.00 Fair CLR 87.8 41 19% 84 29.95 0.0
15 17:15 S 5 10.00 Fair CLR 87.8 39.2 18% 84 29.96 0.0
15 16:55 S 6 10.00 Fair CLR 87.8 41 19% 84 29.96 0.0
15 16:35 S 7 10.00 Fair CLR 87.8 39.2 18% 84 29.96 0.0
15 16:15 SW 6 10.00 Fair CLR 87.8 39.2 18% 84 29.96 0.0
15 15:55 SW 6 10.00 Fair CLR 87.8 41 19% 84 29.97 0.0
15 15:35 SW 5 10.00 Fair CLR 89.6 42.8 20% 86 29.97 0.0
15 15:15 SW 8 10.00 Fair CLR 87.8 42.8 21% 84 29.98 0.0
15 14:55 W 6 10.00 Fair CLR 87.8 41 19% 84 29.98 0.0
15 14:35 W 8 10.00 Fair CLR 86 44.6 24% 83 29.99 0.0
15 14:15 SW 8 10.00 Fair CLR 86 44.6 24% 83 30 0.0
15 13:50 W 8 10.00 Fair CLR 84.2 44.6 25% 82 30 0.0
Date Time (pdt) Wind (mph) Vis. (mi.) Weather Sky Cond. Air Dwpt Max. Min. Relative Humidity Wind Chill (°F) Heat Index (°F) altimeter (in) sea level (mb) 1 hr 3 hr 6 hr
6 hour
Temperature (ºF) Pressure Precipitation (in)